Change the Weather History Date:

Friday, April 27, 2012

  Actual Average Record
Temperature  
Mean Temperature 51 °F 58 °F  
Max Temperature 61 °F 69 °F 87 °F (1981)
Min Temperature 40 °F 46 °F 33 °F (1968)
Degree Days  
Heating Degree Days 14 8  
Month to date heating degree days 247 342  
Since 1 July heating degree days 4052 5324  
Cooling Degree Days 0 1  
Month to date cooling degree days 26 16  
Year to date cooling degree days 77 18  
Moisture  
Dew Point 22 °F    
Average Humidity 38    
Maximum Humidity 57    
Minimum Humidity 19    
Precipitation  
Precipitation 0.00 in 0.13 in 1.93 in (2002)
Month to date precipitation 2.25 3.12  
Year to date precipitation 7.00 9.38  
Snow  
Snow 0.00 in 0.00 in 0.00 in ()
Month to date snowfall 0.0 0.3  
Since 1 July snowfall 9.2 20.9  
Snow Depth 0.00 in    
Sea Level Pressure  
Sea Level Pressure 30.11 in    
Wind  
Wind Speed 13 mph (East)    
Max Wind Speed 25 mph    
Max Gust Speed 32 mph    
Visibility 10 miles    
Events      
T = Trace of Precipitation, MM = Missing Value Source: NWS Daily Summary

Daily Weather History Graph

Daily Weather History Graph

Search for Another Location

Airport or City:

Trip Planner

Search our weather history database for the weather conditions in past years. The results will help you decide how hot, cold, wet, or windy it might be!

Date:

Astronomy

Apr. 27, 2012 Rise Set
Actual Time 6:03 AM CDT 7:49 PM CDT
Civil Twilight 5:34 AM CDT 8:18 PM CDT
Nautical Twilight 4:59 AM CDT 8:53 PM CDT
Astronomical Twilight 4:22 AM CDT 9:31 PM CDT
Moon 10:41 AM CDT (4/27) 12:36 AM CDT (4/27)
Length of Visible Light 14h 44m
Length of Day
13h 46m
Waxing Crescent, 33% of the Moon is Illuminated
Apr 27
Waxing Crescent
Apr 29
First Quarter
May 5
Full
May 12
Last Quarter
May 20
New

Hourly Weather History & Observations

Time (CDT) Temp. Windchill Dew Point Humidity Pressure Visibility Wind Dir Wind Speed Gust Speed Precip Events Conditions
12:52 AM 45.0 °F 38.9 °F 27.0 °F 49% 30.15 in 10.0 mi East 12.7 mph - N/A   Clear
1:52 AM 43.0 °F 37.2 °F 28.0 °F 56% 30.16 in 10.0 mi ENE 10.4 mph - N/A   Clear
2:52 AM 43.0 °F 37.2 °F 21.9 °F 43% 30.15 in 10.0 mi East 10.4 mph - N/A   Clear
3:52 AM 43.0 °F 36.8 °F 17.1 °F 35% 30.16 in 10.0 mi East 11.5 mph 20.7 mph N/A   Clear
4:52 AM 42.1 °F 37.7 °F 19.0 °F 40% 30.16 in 10.0 mi East 6.9 mph - N/A   Clear
5:52 AM 39.9 °F 37.8 °F 21.9 °F 49% 30.17 in 10.0 mi East 3.5 mph - N/A   Clear
6:52 AM 41.0 °F - 26.1 °F 55% 30.21 in 10.0 mi Calm Calm - N/A   Clear
7:52 AM 45.0 °F 40.6 °F 26.1 °F 48% 30.23 in 10.0 mi East 8.1 mph - N/A   Clear
8:52 AM 48.0 °F - 23.0 °F 37% 30.22 in 10.0 mi East 19.6 mph 25.3 mph N/A   Clear
9:52 AM 50.0 °F - 21.0 °F 32% 30.22 in 10.0 mi East 13.8 mph 26.5 mph N/A   Clear
10:52 AM 54.0 °F - 19.9 °F 26% 30.22 in 10.0 mi ESE 16.1 mph 24.2 mph N/A   Clear
11:52 AM 55.0 °F - 21.9 °F 28% 30.20 in 10.0 mi East 13.8 mph 20.7 mph N/A   Clear
12:52 PM 55.9 °F - 19.9 °F 25% 30.16 in 10.0 mi East 12.7 mph 21.9 mph N/A   Clear
1:52 PM 60.1 °F - 19.0 °F 20% 30.10 in 10.0 mi East 19.6 mph 27.6 mph N/A   Clear
2:52 PM 57.9 °F - 17.1 °F 20% 30.15 in 10.0 mi East 9.2 mph - N/A   Mostly Cloudy
3:52 PM 61.0 °F - 17.1 °F 18% 30.07 in 10.0 mi ESE 18.4 mph 23.0 mph N/A   Partly Cloudy
4:52 PM 60.1 °F - 17.1 °F 19% 30.03 in 10.0 mi ESE 17.3 mph 25.3 mph N/A   Clear
5:52 PM 60.1 °F - 18.0 °F 20% 29.99 in 10.0 mi ESE 18.4 mph 31.1 mph N/A   Clear
6:52 PM 60.1 °F - 19.0 °F 20% 30.00 in 10.0 mi ESE 12.7 mph - N/A   Clear
7:52 PM 57.9 °F - 21.9 °F 25% 30.00 in 10.0 mi ESE 15.0 mph - N/A   Clear
8:52 PM 57.0 °F - 21.9 °F 26% 30.00 in 10.0 mi ESE 13.8 mph - N/A   Clear
9:52 PM 57.0 °F - 24.1 °F 28% 30.01 in 10.0 mi East 13.8 mph 21.9 mph N/A   Mostly Cloudy
10:52 PM 55.9 °F - 26.1 °F 32% 30.00 in 10.0 mi ESE 16.1 mph 20.7 mph N/A   Overcast
11:52 PM 55.9 °F - 27.0 °F 33% 29.98 in 10.0 mi ESE 17.3 mph - N/A   Overcast